Weather History for Nashua, NH

Change the Weather History Date:

Thursday, October 30, 2014

  Actual Average Record
Temperature  
Mean Temperature 45 °F -  
Max Temperature 56 °F 56 °F 74 °F (1989)
Min Temperature 34 °F 29 °F 19 °F (1962)
Degree Days  
Heating Degree Days 20    
Moisture  
Dew Point 39 °F    
Average Humidity 89    
Maximum Humidity 100    
Minimum Humidity 49    
Precipitation  
Precipitation 0.00 in - - ()
Sea Level Pressure  
Sea Level Pressure 30.34 in    
Wind  
Wind Speed 1 mph (NW)    
Max Wind Speed 13 mph    
Max Gust Speed -    
Visibility 6 miles    
Events Fog    
Averages and records for this station are not official NWS values.
T = Trace of Precipitation, MM = Missing Value Source: NWS Daily Summary

Daily Weather History Graph

Daily Weather History Graph

Search for Another Location

Airport:

Trip Planner

Search our weather history database for the weather conditions in past years. The results will help you decide how hot, cold, wet, or windy it might be!

Date:

Astronomy

Oct. 30, 2014 Rise Set
Actual Time 7:17 AM EDT 5:41 PM EDT
Civil Twilight 6:48 AM EDT 6:10 PM EDT
Nautical Twilight 6:14 AM EDT 6:43 PM EDT
Astronomical Twilight 5:42 AM EDT 7:16 PM EDT
Moon 1:19 PM EDT (10/30) 11:54 PM EDT (10/30)
Length of Visible Light 11h 22m
Length of Day
10h 23m
Waxing Crescent, 45% of the Moon is Illuminated
Oct 30
Waxing Crescent
Oct 30
First Quarter
Nov 6
Full
Nov 14
Last Quarter
Nov 22
New

Hourly Weather History & Observations

Time (EDT) Temp. Dew Point Humidity Pressure Visibility Wind Dir Wind Speed Gust Speed Precip Events Conditions
12:51 AM 43.9 °F 43.0 °F 97% 30.63 in 10.0 mi Calm Calm - N/A   Clear
1:51 AM 41.9 °F 41.9 °F 100% 30.63 in 1.2 mi Calm Calm - N/A   Clear
1:57 AM 42.8 °F 42.8 °F 100% 29.89 in 2.5 mi Calm Calm - N/A   Clear
2:04 AM 41.0 °F 41.0 °F 100% 29.89 in 5.0 mi Calm Calm - N/A   Clear
2:51 AM 39.9 °F 39.9 °F 100% 30.63 in 5.0 mi Calm Calm - N/A   Clear
3:03 AM 39.2 °F 39.2 °F 100% 29.89 in 1.8 mi Calm Calm - N/A   Clear
3:07 AM 39.2 °F 39.2 °F 100% 29.89 in 1.0 mi Calm Calm - N/A   Clear
3:13 AM 39.2 °F 39.2 °F 100% 29.89 in 1.5 mi Calm Calm - N/A   Clear
3:17 AM 39.2 °F 39.2 °F 100% 29.89 in 3.0 mi Calm Calm - N/A   Clear
3:43 AM 39.2 °F 39.2 °F 100% 29.89 in 1.5 mi Calm Calm - N/A   Clear
3:51 AM 38.8 °F 37.9 °F 97% 30.63 in 0.5 mi Calm Calm - N/A Fog Fog
3:56 AM 39.2 °F 39.2 °F 100% 29.89 in 1.0 mi Calm Calm - N/A   Clear
3:58 AM 39.2 °F 37.4 °F 93% 29.89 in 1.5 mi Calm Calm - N/A   Clear
4:01 AM 37.4 °F 37.4 °F 100% 29.89 in 3.0 mi Calm Calm - N/A   Clear
4:37 AM 37.4 °F 37.4 °F 100% 29.89 in 1.5 mi Calm Calm - N/A   Clear
4:39 AM 37.4 °F 37.4 °F 100% 29.90 in 1.0 mi Calm Calm - N/A   Clear
4:51 AM 36.9 °F 36.9 °F 100% 30.64 in 0.8 mi Calm Calm - N/A   Clear
4:57 AM 37.4 °F 37.4 °F 100% 29.90 in 1.2 mi Calm Calm - N/A   Clear
5:02 AM 37.4 °F 37.4 °F 100% 29.90 in 0.8 mi Calm Calm - N/A   Clear
5:12 AM 37.4 °F 37.4 °F 100% 29.90 in 0.5 mi Calm Calm - N/A Fog Fog
5:19 AM 37.4 °F 37.4 °F 100% 29.90 in 1.0 mi Calm Calm - N/A   Clear
5:22 AM 37.4 °F 37.4 °F 100% 29.90 in 1.5 mi Calm Calm - N/A   Clear
5:28 AM 37.4 °F 37.4 °F 100% 29.90 in 3.0 mi Calm Calm - N/A   Clear
5:51 AM 36.9 °F 36.9 °F 100% 30.65 in 8.0 mi Calm Calm - N/A   Clear
6:51 AM 36.0 °F 36.0 °F 100% 30.66 in 10.0 mi Calm Calm - N/A   Clear
7:51 AM 34.9 °F 34.9 °F 100% 30.69 in 10.0 mi Calm Calm - N/A   Clear
8:51 AM 41.9 °F 41.0 °F 97% 30.69 in 10.0 mi Calm Calm - N/A   Overcast
9:51 AM 46.9 °F 41.9 °F 83% 30.69 in 10.0 mi Calm Calm - N/A   Overcast
10:51 AM 50.9 °F 43.0 °F 74% 30.68 in 10.0 mi Calm Calm - N/A   Overcast
11:51 AM 54.9 °F 37.9 °F 53% 30.67 in 10.0 mi NW 12.7 mph - N/A   Mostly Cloudy
12:51 PM 56.8 °F 38.8 °F 51% 30.66 in 10.0 mi NNW 10.4 mph - N/A   Overcast
1:51 PM 55.9 °F 36.9 °F 49% 30.66 in 10.0 mi NW 5.8 mph - N/A   Mostly Cloudy
2:51 PM 54.9 °F 37.9 °F 53% 30.66 in 10.0 mi NW 10.4 mph - N/A   Overcast
3:51 PM 54.0 °F 37.9 °F 55% 30.68 in 10.0 mi West 4.6 mph - N/A   Overcast
4:51 PM 52.9 °F 38.8 °F 59% 30.69 in 10.0 mi Calm Calm - N/A   Overcast
5:51 PM 50.9 °F 39.9 °F 66% 30.70 in 10.0 mi Calm Calm - N/A   Overcast
6:51 PM 47.8 °F 41.0 °F 77% 30.72 in 10.0 mi Calm Calm - N/A   Mostly Cloudy
7:51 PM 45.0 °F 41.0 °F 86% 30.73 in 10.0 mi Calm Calm - N/A   Mostly Cloudy
8:51 PM 45.0 °F 41.0 °F 86% 30.73 in 10.0 mi Calm Calm - N/A   Mostly Cloudy
9:51 PM 41.9 °F 38.8 °F 89% 30.74 in 10.0 mi Calm Calm - N/A   Clear
10:51 PM 37.9 °F 36.9 °F 96% 30.75 in 10.0 mi Calm Calm - N/A   Clear
11:51 PM 39.9 °F 38.8 °F 96% 30.75 in 10.0 mi Calm Calm - N/A   Overcast